Overview Statistics Trail Chart Weather Telemetry Raw packets
 

This is the latest recevied weather packets stored in our database for station/object KI6SYE. If no packets are shown the sender has not sent any weather packets the latest 10 day(s).

<< 17 18 19 20 21 22 23 >>
Time Temp. Humidity Pressure Rain* Wind** Luminosity Snow
1788558530 23.89° C 73% 1012.5 hPa 0 mm - 606 W/m² -
1788558225 23.89° C 72% 1012.6 hPa 0 mm - 616 W/m² -
1788557924 23.89° C 74% 1012.6 hPa 0 mm - 624 W/m² -
1788557619 23.89° C 73% 1012.7 hPa 0 mm - 633 W/m² -
1788557315 23.89° C 73% 1012.8 hPa 0 mm - 641 W/m² -
1788557009 23.89° C 73% 1012.6 hPa 0 mm - 649 W/m² -
1788556704 23.89° C 72% 1012.6 hPa 0 mm - 659 W/m² -
1788556399 23.33° C 74% 1012.7 hPa 0 mm - 666 W/m² -
1788556088 23.89° C 74% 1012.6 hPa 0 mm - 675 W/m² -
1788555788 23.89° C 73% 1012.5 hPa 0 mm - 680 W/m² -
1788555484 23.33° C 74% 1012.6 hPa 0 mm - 689 W/m² -
1788555180 23.33° C 73% 1012.7 hPa 0 mm - 695 W/m² -
1788554876 23.89° C 74% 1012.5 hPa 0 mm - 698 W/m² -
1788554572 23.33° C 74% 1012.6 hPa 0 mm - 702 W/m² -
1788554268 23.33° C 74% 1012.7 hPa 0 mm - 707 W/m² -
1788553964 23.89° C 73% 1013 hPa 0 mm - 710 W/m² -
1788553660 23.89° C 73% 1012.6 hPa 0 mm - 714 W/m² -
1788553356 23.89° C 73% 1012.9 hPa 0 mm - 718 W/m² -
1788553063 23.33° C 74% 1012.9 hPa 0 mm - 724 W/m² -
1788552751 23.89° C 74% 1013 hPa 0 mm - 724 W/m² -
1788552446 23.89° C 72% 1012.9 hPa 0 mm - 725 W/m² -
1788552141 23.89° C 72% 1013.1 hPa 0 mm - 725 W/m² -
1788551840 23.89° C 72% 1013.2 hPa 0 mm - 729 W/m² -
1788551538 23.89° C 73% 1013.1 hPa 0 mm - 728 W/m² -
1788551234 25° C 70% 1013.1 hPa 0 mm - 729 W/m² -

* Rain latest hour (hover to see other rain measurements)
** Current wind speed in m/s (hover to see current wind gust speed)